Weather in Novoil'insk

Russia / Zabaykalsky Krai     52°30′21″N   116°45′56″E
temp.,
°C
wind,
m/s
gust,
m/s
humid.,
%
clouds,
%
prec.,
mm/h
press.,
hPa
HPBL,
m
20 june, sun
sun2000:00+11ne4994100 0.3 1004360
03:00+11nne4996100 0.6 1005318
06:00+11ne5894100 0.2 1006514
09:00+13ene5891100 0.3 1008744
12:00+15ene458099 0.1 1009765
15:00+18e3469100 1.1 10081241
18:00+18e337199 1.6 1008953
21:00+15ene118487 2.8 100910
21 june, mon
mon2100:00+12nne229043 0.1 101011
03:00+11n229260 0.1 101115
06:00+11nne119274 0.0 101221
09:00+16ene118048 0.0 1012338
12:00+19s22655 0.0 1011994
15:00+22s23535 0.0 10091452
18:00+22sw23536 0.0 10091620
21:00+17sw227535 1.1 100911
22 june, tue
tue2200:00+14sw11835 0.3 101010
03:00+13e008638 0.4 101011
06:00+13sse11895 0.0 101110
09:00+17s22755 0.0 1010357
12:00+21ssw34615 0.1 10091117
15:00+23sw335253 1.1 10081752
18:00+23sw236337 0.0 1007595
21:00+19s016858 0.0 100811
23 june, wed
wed2300:00+16se117492 0.0 100811
03:00+15e118494 0.3 100911
06:00+15ne0088100 0.8 101011
09:00+19ssw117412 0.8 1010330
12:00+23ssw336032 0.0 1009892
15:00+26ssw235298 0.0 10071263
18:00+20wnw587998 0.9 1008277
21:00+19ese117663 2.0 100811
24 june, thu
thu2400:00+16ene1190100 2.2 101011
03:00+15sse1192100 2.3 100911
06:00+15ne1193100 0.0 100911
09:00+19s228193 0.0 1009347
12:00+23s336599 0.0 1008846
15:00+24ssw4561100 3.2 10071101
18:00+25ssw3559100 0.0 10051064
21:00+20s128151 0.1 100611